Regional Weather Roundup
Issued by NWS

Home | Current Version | Previous Version | Graphics & Text | Print | Product List | Glossary Off
Versions: 1 2 3 4 5 6 7 8 9 10 11 12 13 14 15 16 17 18 19 20 21 22 23 24 25 26 27 28 29 30 31 32 33 34 35 36 37 38 39 40 41 42 43 44 45 46 47 48 49 50

000
ASUS43 KMKX 180300
RWRWI

WISCONSIN REGIONAL WEATHER ROUNDUP
NATIONAL WEATHER SERVICE MILWAUKEE/SULLIVAN WI
1000 PM CDT FRI APR 17 2015

NOTE: "FAIR" INDICATES FEW OR NO CLOUDS BELOW 12,000 FEET WITH NO
SIGNIFICANT WEATHER AND/OR OBSTRUCTIONS TO VISIBILITY.

WIZ001-002-006>008-014>016-023>028-180400-
NORTHWEST WISCONSIN

CITY           SKY/WX    TMP DP  RH WIND       PRES   REMARKS
SUPERIOR ARPT  CLEAR     55  27  34 W5        29.99S
ASHLAND        CLEAR     52  25  35 SW6       30.00R
HAYWARD        CLEAR     52  29  41 CALM      30.02R
SIREN          PTCLDY    52  29  41 CALM      30.03S
CUMBERLAND     CLEAR     50  28  43 NW3       30.03R
RICE LAKE      CLEAR     52  35  53 CALM      30.04R
CHETEK         CLEAR     54  40  60 N8        30.03R
LADYSMITH      PTCLDY    58  31  36 W6        30.03R
EAU CLAIRE     PTCLDY    57  30  35 CALM      30.02R
MENOMONIE      PTCLDY    62  30  29 SW3       30.03R
NEW RICHMOND   CLEAR     55  33  44 CALM      30.04R
OSCEOLA        CLEAR     53  35  50 SE3       30.05S
$$

WIZ003>005-009-010-017-018-180400-
NORTH CENTRAL WISCONSIN

CITY           SKY/WX    TMP DP  RH WIND       PRES   REMARKS
MANITOWISH WTR CLEAR     46  37  71 CALM      30.00S
ARBOR VITAE    CLEAR     52  31  45 CALM      30.00S
WOODRUFF       CLEAR     52  31  45 CALM      30.00S
RHINELANDER    CLEAR     57  28  33 W7        30.01R
EAGLE RIVER    CLEAR     49  30  48 CALM      30.00R
LAND O LAKES   CLEAR     42  34  72 CALM      30.01R
PHILLIPS       PTCLDY    52  37  55 CALM      30.01R
TOMAHAWK       CLEAR     51  34  51 CALM      30.01R
MEDFORD        CLEAR     55  37  50 CALM      30.02R
MERRILL        CLEAR     60  36  40 W5        30.00R
$$

WIZ029-030-035-036-043>047-180400-
CENTRAL WISCONSIN

CITY           SKY/WX    TMP DP  RH WIND       PRES   REMARKS
WAUSAU         CLEAR     61  41  47 NW7       29.98S
MOSINEE        CLEAR     61  41  48 W8        30.01R
MARSHFIELD     CLEAR     57  43  59 NW10      30.01R
STEVENS POINT  CLEAR     55  43  63 CALM      30.00S
WAUPACA        CLEAR     59  42  53 CALM      29.99R
WAUTOMA        NOT AVBL
WISC RAPIDS    CLEAR     57  40  52 CALM      30.01R
CAMP DOUGLAS   NOT AVBL
$$

WIZ011>013-019>022-031-037>040-048>050-180400-
NORTHEAST WISCONSIN

CITY           SKY/WX    TMP DP  RH WIND       PRES   REMARKS
ANTIGO         CLEAR     58  43  57 W8        29.99S
SHAWANO        CLEAR     63  40  43 S3        29.97R
OCONTO         PTCLDY    47  41  77 CALM      29.96S
STURGEON BAY   CLEAR     46  37  71 S6        29.99S
GREEN BAY      CLEAR     56  45  66 CALM      29.98R
MANITOWOC      NOT AVBL
APPLETON       CLEAR     59  43  55 S5        29.99R
CLINTONVILLE   CLEAR     55  41  58 S5        29.98R
OSHKOSH        PTCLDY    57  44  62 S9        29.99R
$$

WIZ032>034-041-042-053>061-180400-
SOUTHWEST WISCONSIN

CITY           SKY/WX    TMP DP  RH WIND       PRES   REMARKS
LA CROSSE      PTCLDY    64  49  57 CALM      30.00R
SPARTA         PTCLDY    55  43  64 CALM      30.02R
VIROQUA        PTCLDY    66  40  38 W3        30.02S
BOSCOBEL       FAIR      57  46  66 CALM      30.01R
PRAIRIE DU CHI PTCLDY    61  46  58 CALM      30.01R
PLATTEVILLE    MOCLDY    68  46  46 CALM      30.02R
$$

WIZ056-057-062-063-064-067-068-180400-
SOUTH CENTRAL WISCONSIN

CITY           SKY/WX    TMP DP  RH WIND       PRES   REMARKS
REEDSBURG      CLEAR     62  45  54 CALM      30.00R
BARABOO/DELLS  CLEAR     59  40  50 CALM      30.00R
LONE ROCK      NOT AVBL
MINERAL POINT  PTCLDY    68  41  37 CALM      30.02R
MADISON        PTCLDY    59  45  59 CALM      30.00R
MIDDLETON      CLEAR     57  47  70 CALM      30.01R
WATERTOWN      CLEAR     60  45  57 CALM      30.00R
MONROE         PTCLDY    70  45  40 W7        30.01R
JANESVILLE     CLEAR     63  45  51 CALM      30.00
$$

WIZ051-052-058>065-066-070>072-180400-
SOUTHEAST WISCONSIN

CITY           SKY/WX    TMP DP  RH WIND       PRES   REMARKS
MILWAUKEE      PTCLDY    50  39  66 E3        30.01S
WAUKESHA       CLEAR     54  41  62 S3        30.01R
MILWAUKEE/TIMM CLEAR     55  37  50 CALM      30.01S
RACINE         CLEAR     50  41  71 CALM      30.02S
BURLINGTON     CLEAR     54  44  68 CALM      30.01R
KENOSHA        CLEAR     48  42  80 CALM      30.01S
FOND DU LAC    CLEAR     58  42  55 S3        29.99R
SHEBOYGAN      CLEAR     49  40  71 SW5       29.99S
WEST BEND      CLEAR     55  36  47 CALM      30.00S
JUNEAU         CLEAR     58  44  60 SE6       30.01R
$$

LSZ147-162-180400-
LAKE SUPERIOR

STATION/POSITION TIME  TEMP    WIND        PRES    WAVE
                       AIR SEA DIR/SP/G            HT/PER
                 (UTC) (F)     (DEG/KT/KT) (MB)    (FT/S)
DEVILS ISLAND    0200   51     240/ 13/ 15 1014.8R
PORT WING        0240   55     180/  5/  7 1015.2R
SAXON HARBOR     0200   51     200/  5/  6 1014.6R
$$

LMZ867-665-643>646-180400-
LAKE MICHIGAN

STATION/POSITION TIME  TEMP    WIND        PRES    WAVE
                       AIR SEA DIR/SP/G            HT/PER
                 (UTC) (F)     (DEG/KT/KT) (MB)    (FT/S)
CHAMBERS ISLAND  0200   47      CALM  /  1 1015.2R
NORTHPORT PIER   0200   47     360/  3/  5 1015.6R
SISTER BAY       0202   49     200/  5/  6   N/A
KEWAUNEE LAKESHO 0200   44     180/  7/  9 1014.5R
SHEBOYGAN LAKESH 0200   49     210/  8/  8 1016.2S
PORT WASHINGTON  0240   47     260/  2/  4 1016.6S
MILWAUKEE LAKESH 0200   43     190/  1/  1   N/A
KENOSHA   LAKESH 0200   46      30/  2/  3 1016.3R
$$

TC  - TEMPERATURE IN CELSIUS
VSB - VISIBILITY IN STATUTE MILES
WCI - WIND CHILL INDEX
HX  - HEAT INDEX



USA.gov is the U.S. government's official web portal to all federal, state and local government web resources and services.